Tracking 35331 objects as of 16-Sep-2026
HD Live streaming from Space Station
objects crossing your sky now

WESTFORD NEEDLES


WESTFORD NEEDLES is no longer on orbit
WESTFORD NEEDLES is classified as:


NORAD ID: 3251
Int'l Code: 1963-014BR
Launch date: May 9, 1963
Source: United States (US)
Launch site: AIR FORCE WESTERN TEST RANGE (AFWTR)
Decay date: 1987-10-17
Your satellite tracking list
Your tracking list is empty




NASA's NSSDC Master Catalog

Two Line Element Set (TLE):
1 03251U 63014 BR 69178.24934647  .00006723 +00000-0 +00000-0 0  9993
2 03251 084.8690 273.8304 2534959 306.7632 032.5786 08.82654842189869
Source of the keplerian elements: AFSPC